When you browse on this site, cookies collect data to enhance your experience and personalize the content and advertising you see.
Visit our Privacy Policy to learn more. By continuing to use the site, you agree to this use of cookies and data.
  • In Austria
  • List of Countries
  • For 7 days
  • Water Temperature
  • Weather Map
  • News
  • Weather Widgets
  • user-avatar
    Login

    Hourly Weather Puerto Salgar

    Today, 23 September, Monday

    Time Temperature Precipitation Wind Pressure Humidity
    00:00 +25°C° 1 mm 1 mps 747 mmHg 96%
    01:00 +23°C° 0 mm 0 mps 747 mmHg 96%
    02:00 +23°C° 1.2 mm 0 mps 747 mmHg 96%
    03:00 +23°C° 1.2 mm 0 mps 747 mmHg 96%
    04:00 +23°C° 1.2 mm 0 mps 747 mmHg 97%
    05:00 +23°C° 0.5 mm 0 mps 747 mmHg 96%
    06:00 +23°C° 0.5 mm 0 mps 748 mmHg 95%
    07:00 +25°C° 0.5 mm 1 mps 748 mmHg 94%
    08:00 +27°C° 0 mm 1 mps 748 mmHg 85%
    09:00 +29°C° 0 mm 1 mps 748 mmHg 77%
    10:00 +31°C° 0 mm 1 mps 747 mmHg 68%
    11:00 +32°C° 0.1 mm 1 mps 746 mmHg 64%
    12:00 +34°C° 0.1 mm 2 mps 745 mmHg 59%
    13:00 +35°C° 0.1 mm 2 mps 744 mmHg 55%
    14:00 +34°C° 0 mm 1 mps 744 mmHg 56%
    15:00 +34°C° 0 mm 1 mps 744 mmHg 56%
    16:00 +34°C° 0 mm 1 mps 743 mmHg 57%
    17:00 +32°C° 0.4 mm 1 mps 744 mmHg 65%
    18:00 +30°C° 0.4 mm 1 mps 744 mmHg 73%
    19:00 +28°C° 0.4 mm 1 mps 745 mmHg 81%
    20:00 +27°C° 0.5 mm 1 mps 746 mmHg 84%
    21:00 +27°C° 0.5 mm 1 mps 746 mmHg 87%
    22:00 +26°C° 0.5 mm 1 mps 747 mmHg 89%
    23:00 +24°C° 0.6 mm 0 mps 747 mmHg 91%

    Tomorrow, 24 September, Tuesday

    Time Temperature Precipitation Wind Pressure Humidity
    00:00 +24°C° 0.6 mm 0 mps 746 mmHg 92%
    01:00 +23°C° 0.6 mm 0 mps 746 mmHg 94%
    02:00 +23°C° 0.3 mm 0 mps 746 mmHg 94%
    03:00 +23°C° 0.3 mm 0 mps 746 mmHg 95%
    04:00 +23°C° 0.3 mm 0 mps 746 mmHg 96%
    05:00 +23°C° 0 mm 0 mps 747 mmHg 94%
    06:00 +23°C° 0 mm 0 mps 747 mmHg 93%
    07:00 +24°C° 0 mm 0 mps 747 mmHg 92%
    08:00 +26°C° 0.3 mm 0 mps 748 mmHg 85%
    09:00 +28°C° 0.3 mm 0 mps 748 mmHg 78%
    10:00 +29°C° 0.3 mm 0 mps 748 mmHg 71%
    11:00 +32°C° 0.3 mm 1 mps 747 mmHg 67%
    12:00 +33°C° 0.3 mm 1 mps 746 mmHg 63%
    13:00 +33°C° 0.3 mm 1 mps 745 mmHg 59%
    14:00 +33°C° 0 mm 1 mps 744 mmHg 60%
    15:00 +33°C° 0 mm 1 mps 744 mmHg 62%
    16:00 +33°C° 0 mm 1 mps 744 mmHg 63%
    17:00 +31°C° 0.1 mm 1 mps 744 mmHg 68%
    18:00 +27°C° 0.1 mm 0 mps 745 mmHg 74%
    19:00 +25°C° 0.1 mm 0 mps 745 mmHg 80%
    20:00 +25°C° 0.1 mm 0 mps 746 mmHg 81%
    21:00 +25°C° 0.1 mm 0 mps 747 mmHg 83%
    22:00 +24°C° 0.1 mm 0 mps 747 mmHg 85%
    23:00 +24°C° 0.6 mm 0 mps 747 mmHg 87%

    Day after tomorrow, 25 September, Wednesday

    Time Temperature Precipitation Wind Pressure Humidity
    00:00 +24°C° 0.6 mm 0 mps 747 mmHg 90%
    01:00 +24°C° 0.6 mm 0 mps 747 mmHg 92%
    02:00 +23°C° 0.9 mm 0 mps 746 mmHg 93%
    03:00 +23°C° 0.9 mm 0 mps 746 mmHg 94%
    04:00 +23°C° 0.9 mm 0 mps 746 mmHg 95%
    05:00 +23°C° 0.4 mm 0 mps 747 mmHg 95%
    06:00 +23°C° 0.4 mm 0 mps 747 mmHg 95%
    07:00 +23°C° 0.4 mm 0 mps 748 mmHg 95%
    08:00 +25°C° 0.1 mm 0 mps 748 mmHg 91%
    09:00 +26°C° 0.1 mm 0 mps 747 mmHg 86%
    10:00 +27°C° 0.1 mm 0 mps 747 mmHg 82%
    11:00 +29°C° 0 mm 0 mps 746 mmHg 74%
    12:00 +33°C° 0 mm 1 mps 745 mmHg 65%
    13:00 +35°C° 0 mm 1 mps 744 mmHg 57%
    14:00 +34°C° 0.1 mm 1 mps 744 mmHg 58%
    15:00 +34°C° 0.1 mm 1 mps 744 mmHg 60%
    16:00 +34°C° 0.1 mm 1 mps 743 mmHg 61%
    17:00 +32°C° 1 mm 1 mps 744 mmHg 70%
    18:00 +30°C° 1 mm 1 mps 744 mmHg 78%
    19:00 +28°C° 1 mm 1 mps 745 mmHg 86%
    20:00 +27°C° 2.5 mm 1 mps 746 mmHg 89%
    21:00 +26°C° 2.5 mm 1 mps 746 mmHg 92%
    22:00 +26°C° 2.5 mm 1 mps 747 mmHg 95%
    23:00 +25°C° 1.3 mm 1 mps 747 mmHg 96%

    26 September, Thursday

    Time Temperature Precipitation Wind Pressure Humidity
    00:00 +25°C° 1.3 mm 1 mps 747 mmHg 96%
    01:00 +25°C° 1.3 mm 1 mps 746 mmHg 96%
    02:00 +23°C° 0.2 mm 0 mps 746 mmHg 96%
    03:00 +22°C° 0.2 mm 0 mps 746 mmHg 95%
    04:00 +22°C° 0.2 mm 0 mps 746 mmHg 95%
    05:00 +23°C° 0 mm 0 mps 747 mmHg 94%
    06:00 +23°C° 0 mm 0 mps 747 mmHg 93%
    07:00 +23°C° 0 mm 0 mps 747 mmHg 92%
    08:00 +26°C° 0 mm 0 mps 747 mmHg 82%
    09:00 +28°C° 0 mm 0 mps 747 mmHg 73%
    10:00 +30°C° 0 mm 0 mps 747 mmHg 64%
    11:00 +33°C° 0.1 mm 1 mps 746 mmHg 61%
    12:00 +33°C° 0.1 mm 1 mps 745 mmHg 58%
    13:00 +34°C° 0.1 mm 1 mps 744 mmHg 55%
    14:00 +34°C° 0.3 mm 1 mps 744 mmHg 58%
    15:00 +34°C° 0.3 mm 1 mps 743 mmHg 61%
    16:00 +31°C° 0.3 mm 0 mps 743 mmHg 65%
    17:00 +30°C° 0.3 mm 0 mps 743 mmHg 71%
    18:00 +28°C° 0.3 mm 0 mps 744 mmHg 77%
    19:00 +28°C° 0.3 mm 1 mps 744 mmHg 84%
    20:00 +27°C° 1.1 mm 1 mps 745 mmHg 87%
    21:00 +27°C° 1.1 mm 1 mps 746 mmHg 90%
    22:00 +26°C° 1.1 mm 1 mps 746 mmHg 93%
    23:00 +24°C° 2.5 mm 0 mps 746 mmHg 94%

    27 September, Friday

    Time Temperature Precipitation Wind Pressure Humidity
    00:00 +23°C° 2.5 mm 0 mps 746 mmHg 96%
    01:00 +23°C° 2.5 mm 0 mps 746 mmHg 97%
    02:00 +23°C° 0.9 mm 0 mps 746 mmHg 97%
    03:00 +23°C° 0.9 mm 0 mps 746 mmHg 97%
    04:00 +22°C° 0.9 mm 0 mps 746 mmHg 97%
    05:00 +23°C° 1.1 mm 0 mps 746 mmHg 96%
    06:00 +23°C° 1.1 mm 0 mps 747 mmHg 96%
    07:00 +23°C° 1.1 mm 0 mps 747 mmHg 95%
    08:00 +25°C° 0.5 mm 0 mps 747 mmHg 89%
    09:00 +27°C° 0.5 mm 0 mps 747 mmHg 83%
    10:00 +29°C° 0.5 mm 0 mps 747 mmHg 76%
    11:00 +32°C° 0.3 mm 1 mps 746 mmHg 71%
    12:00 +33°C° 0.3 mm 1 mps 745 mmHg 66%
    13:00 +34°C° 0.3 mm 1 mps 744 mmHg 61%
    14:00 +34°C° 0.3 mm 1 mps 744 mmHg 63%
    15:00 +33°C° 0.3 mm 1 mps 744 mmHg 64%
    16:00 +33°C° 0.3 mm 1 mps 743 mmHg 66%
    17:00 +31°C° 0.9 mm 1 mps 744 mmHg 73%
    18:00 +29°C° 0.9 mm 1 mps 744 mmHg 80%
    19:00 +28°C° 0.9 mm 1 mps 745 mmHg 87%
    20:00 +27°C° 3.4 mm 1 mps 745 mmHg 90%
    21:00 +26°C° 3.4 mm 1 mps 746 mmHg 94%
    22:00 +26°C° 3.4 mm 1 mps 746 mmHg 97%
    23:00 +25°C° 1.2 mm 1 mps 746 mmHg 97%

    28 September, Saturday

    Time Temperature Precipitation Wind Pressure Humidity
    00:00 +23°C° 1.2 mm 0 mps 746 mmHg 96%
    01:00 +23°C° 1.2 mm 0 mps 746 mmHg 96%
    02:00 +23°C° 0.3 mm 0 mps 746 mmHg 97%
    03:00 +23°C° 0.3 mm 0 mps 746 mmHg 97%
    04:00 +22°C° 0.3 mm 0 mps 746 mmHg 97%
    05:00 +23°C° 0.1 mm 0 mps 746 mmHg 96%
    06:00 +23°C° 0.1 mm 0 mps 747 mmHg 95%
    07:00 +24°C° 0.1 mm 0 mps 747 mmHg 94%
    08:00 +26°C° 0.2 mm 0 mps 747 mmHg 85%
    09:00 +28°C° 0.2 mm 0 mps 747 mmHg 77%
    10:00 +32°C° 0.2 mm 1 mps 747 mmHg 68%
    11:00 +33°C° 0.1 mm 1 mps 746 mmHg 64%
    12:00 +34°C° 0.1 mm 1 mps 745 mmHg 59%
    13:00 +35°C° 0.1 mm 1 mps 744 mmHg 55%
    14:00 +34°C° 0.2 mm 1 mps 743 mmHg 58%
    15:00 +34°C° 0.2 mm 1 mps 743 mmHg 62%
    16:00 +33°C° 0.2 mm 1 mps 742 mmHg 65%
    17:00 +31°C° 0.9 mm 1 mps 743 mmHg 72%
    18:00 +29°C° 0.9 mm 1 mps 744 mmHg 80%
    19:00 +27°C° 0.9 mm 1 mps 744 mmHg 87%
    20:00 +27°C° 2.9 mm 1 mps 745 mmHg 90%
    21:00 +26°C° 2.9 mm 1 mps 745 mmHg 93%
    22:00 +26°C° 2.9 mm 1 mps 745 mmHg 96%
    23:00 +26°C° 1.4 mm 1 mps 745 mmHg 96%
    Show more